Location: Edinburgh
(55.9500°N, 3.1600°W)
Time: 10:59:06
(UTC+01:00)

AO-91 - Pass Details

Date: 31 May 2024
Orbit: 442 x 732 km, 97.6° (Epoch: 16 June)

Event Time Altitude Azimuth Distance (km) Brightness Sun altitude
Rises 00:40:11 0° 7° (N) 2,922 ? -11.8°
Reaches altitude 10° 00:42:46 10° 351° (N) 2,062 ? -11.9°
Maximum altitude 00:46:04 20° 304° (WNW) 1,537 ? -11.9°
Drops below altitude 10° 00:49:31 10° 257° (WSW) 2,164 ? -12.0°
Sets 00:52:19 0° 242° (WSW) 3,113 ? -12.0°
